Time,TemperatureF,DewpointF,PressureIn,WindDirection,WindDirectionDegrees,WindSpeedMPH,WindSpeedGustMPH,Humidity,HourlyPrecipIn,Conditions,Clouds,dailyrainin,SoftwareType,DateUTC
2013-08-21 00:00:00,66.4,63.1,30.03,West,264,0.0,0.0,89,0.00,,CLR,0.00,VWS V14.01,2013-08-21 04:00:00,
2013-08-21 00:01:00,66.4,63.1,30.03,West,264,0.0,0.0,89,0.00,,CLR,0.00,VWS V14.01,2013-08-21 04:01:00,
2013-08-21 00:06:00,66.2,63.2,30.03,West,264,0.0,0.0,90,0.00,,CLR,0.00,VWS V14.01,2013-08-21 04:06:00,
2013-08-21 00:11:00,66.4,63.1,30.03,West,265,0.0,0.0,89,0.00,,CLR,0.00,VWS V14.01,2013-08-21 04:11:00,
2013-08-21 00:15:00,66.6,63.3,30.03,West,264,0.0,0.0,89,0.00,,CLR,0.00,VWS V14.01,2013-08-21 04:15:00,
2013-08-21 00:16:00,66.6,63.3,30.03,West,264,0.0,0.0,89,0.00,,CLR,0.00,VWS V14.01,2013-08-21 04:16:00,
2013-08-21 00:21:00,66.6,63.3,30.04,West,264,0.0,0.0,89,0.00,,CLR,0.00,VWS V14.01,2013-08-21 04:21:00,
2013-08-21 00:26:00,66.6,62.9,30.04,West,266,0.0,0.0,88,0.00,,CLR,0.00,VWS V14.01,2013-08-21 04:26:00,
2013-08-21 00:30:00,66.6,62.9,30.04,West,265,0.0,0.0,88,0.00,,CLR,0.00,VWS V14.01,2013-08-21 04:30:00,
2013-08-21 00:31:00,66.6,62.9,30.04,West,265,0.0,0.0,88,0.00,,CLR,0.00,VWS V14.01,2013-08-21 04:31:00,
2013-08-21 00:36:00,66.6,62.9,30.04,West,263,0.0,1.0,88,0.00,,CLR,0.00,VWS V14.01,2013-08-21 04:36:00,
2013-08-21 00:41:00,66.5,62.8,30.04,West,263,0.0,0.0,88,0.00,,CLR,0.00,VWS V14.01,2013-08-21 04:41:00,
2013-08-21 00:45:00,66.5,62.8,30.04,West,263,0.0,0.0,88,0.00,,CLR,0.00,VWS V14.01,2013-08-21 04:45:00,
2013-08-21 00:46:00,66.5,62.8,30.04,West,263,0.0,0.0,88,0.00,,CLR,0.00,VWS V14.01,2013-08-21 04:46:00,
2013-08-21 00:51:00,66.4,62.7,30.04,West,263,0.0,0.0,88,0.00,,CLR,0.00,VWS V14.01,2013-08-21 04:51:00,
2013-08-21 00:56:00,66.3,62.6,30.04,West,263,0.0,0.0,88,0.00,,CLR,0.00,VWS V14.01,2013-08-21 04:56:00,
2013-08-21 01:00:00,66.3,62.7,30.04,West,263,0.0,0.0,88,0.00,,CLR,0.00,VWS V14.01,2013-08-21 05:00:00,
2013-08-21 01:01:00,66.3,62.6,30.04,West,263,0.0,0.0,88,0.00,,CLR,0.00,VWS V14.01,2013-08-21 05:01:00,
2013-08-21 01:06:00,66.2,62.5,30.04,West,263,0.0,0.0,88,0.00,,CLR,0.00,VWS V14.01,2013-08-21 05:06:00,
2013-08-21 01:11:00,66.1,62.8,30.04,West,263,0.0,0.0,89,0.00,,CLR,0.00,VWS V14.01,2013-08-21 05:11:00,
2013-08-21 01:15:00,65.9,62.6,30.04,West,263,0.0,0.0,89,0.00,,CLR,0.00,VWS V14.01,2013-08-21 05:15:00,
2013-08-21 01:16:00,65.9,62.6,30.04,West,263,0.0,0.0,89,0.00,,CLR,0.00,VWS V14.01,2013-08-21 05:16:00,
2013-08-21 01:21:00,65.8,62.5,30.04,West,263,0.0,0.0,89,0.00,,CLR,0.00,VWS V14.01,2013-08-21 05:21:00,
2013-08-21 01:26:00,65.7,62.4,30.04,West,263,0.0,0.0,89,0.00,,CLR,0.00,VWS V14.01,2013-08-21 05:26:00,
2013-08-21 01:30:00,65.6,62.3,30.03,West,263,0.0,0.0,89,0.00,,CLR,0.00,VWS V14.01,2013-08-21 05:30:00,
2013-08-21 01:31:00,65.6,62.3,30.03,West,263,0.0,0.0,89,0.00,,CLR,0.00,VWS V14.01,2013-08-21 05:31:00,
2013-08-21 01:36:00,65.5,62.2,30.03,West,263,0.0,0.0,89,0.00,,CLR,0.00,VWS V14.01,2013-08-21 05:36:00,
2013-08-21 01:41:00,65.5,62.2,30.03,West,263,0.0,0.0,89,0.00,,CLR,0.00,VWS V14.01,2013-08-21 05:41:00,
2013-08-21 01:45:00,65.6,62.3,30.03,West,263,0.0,0.0,89,0.00,,CLR,0.00,VWS V14.01,2013-08-21 05:45:00,
2013-08-21 01:46:00,65.5,62.2,30.03,West,263,0.0,0.0,89,0.00,,CLR,0.00,VWS V14.01,2013-08-21 05:46:00,
2013-08-21 01:51:00,65.5,62.2,30.03,West,264,0.0,0.0,89,0.00,,CLR,0.00,VWS V14.01,2013-08-21 05:51:00,
2013-08-21 01:56:00,65.5,62.2,30.04,West,264,0.0,0.0,89,0.00,,CLR,0.00,VWS V14.01,2013-08-21 05:56:00,
2013-08-21 02:00:00,65.4,62.1,30.04,West,264,0.0,0.0,89,0.00,,CLR,0.00,VWS V14.01,2013-08-21 06:00:00,
2013-08-21 02:01:00,65.4,62.1,30.04,West,264,0.0,0.0,89,0.00,,CLR,0.00,VWS V14.01,2013-08-21 06:01:00,
2013-08-21 02:06:00,65.3,62.3,30.04,West,265,0.0,0.0,90,0.00,,CLR,0.00,VWS V14.01,2013-08-21 06:06:00,
2013-08-21 02:11:00,65.1,62.1,30.04,West,264,0.0,0.0,90,0.00,,CLR,0.00,VWS V14.01,2013-08-21 06:11:00,
2013-08-21 02:15:00,64.9,61.9,30.04,West,264,0.0,0.0,90,0.00,,CLR,0.00,VWS V14.01,2013-08-21 06:15:00,
2013-08-21 02:16:00,64.9,61.9,30.04,West,264,0.0,0.0,90,0.00,,CLR,0.00,VWS V14.01,2013-08-21 06:16:00,
2013-08-21 02:21:00,64.9,62.2,30.04,West,264,0.0,0.0,91,0.00,,CLR,0.00,VWS V14.01,2013-08-21 06:21:00,
2013-08-21 02:26:00,64.7,62.0,30.04,West,264,0.0,0.0,91,0.00,,CLR,0.00,VWS V14.01,2013-08-21 06:26:00,
2013-08-21 02:30:00,64.6,61.9,30.04,West,264,0.0,0.0,91,0.00,,CLR,0.00,VWS V14.01,2013-08-21 06:30:00,
2013-08-21 02:31:00,64.5,61.8,30.04,West,264,0.0,0.0,91,0.00,,CLR,0.00,VWS V14.01,2013-08-21 06:31:00,
2013-08-21 02:36:00,64.3,61.6,30.04,West,264,0.0,0.0,91,0.00,,CLR,0.00,VWS V14.01,2013-08-21 06:36:00,
2013-08-21 02:41:00,64.2,61.8,30.04,West,264,0.0,0.0,92,0.00,,CLR,0.00,VWS V14.01,2013-08-21 06:41:00,
2013-08-21 02:45:00,64.0,61.6,30.04,West,264,0.0,0.0,92,0.00,,CLR,0.00,VWS V14.01,2013-08-21 06:45:00,
2013-08-21 02:46:00,64.0,61.6,30.04,West,264,0.0,0.0,92,0.00,,CLR,0.00,VWS V14.01,2013-08-21 06:46:00,
2013-08-21 02:51:00,63.9,61.5,30.04,West,264,0.0,0.0,92,0.00,,CLR,0.00,VWS V14.01,2013-08-21 06:51:00,
2013-08-21 02:56:00,63.7,61.3,30.04,West,264,0.0,0.0,92,0.00,,CLR,0.00,VWS V14.01,2013-08-21 06:56:00,
2013-08-21 03:00:00,63.6,61.5,30.04,West,264,0.0,0.0,93,0.00,,CLR,0.00,VWS V15.00,2013-08-21 07:00:00,
2013-08-21 03:01:00,63.6,61.5,30.04,West,264,0.0,0.0,93,0.00,,CLR,0.00,VWS V14.01,2013-08-21 07:01:00,
2013-08-21 03:06:00,63.5,61.4,30.04,West,264,0.0,0.0,93,0.00,,CLR,0.00,VWS V14.01,2013-08-21 07:06:00,
2013-08-21 03:11:00,63.3,61.2,30.04,West,264,0.0,0.0,93,0.00,,CLR,0.00,VWS V14.01,2013-08-21 07:11:00,
2013-08-21 03:15:00,63.1,61.3,30.04,West,264,0.0,0.0,94,0.00,,CLR,0.00,VWS V15.00,2013-08-21 07:15:00,
2013-08-21 03:16:00,63.1,61.3,30.04,West,264,0.0,0.0,94,0.00,,CLR,0.00,VWS V14.01,2013-08-21 07:16:00,
2013-08-21 03:21:00,62.8,61.0,30.04,West,264,0.0,0.0,94,0.00,,CLR,0.00,VWS V14.01,2013-08-21 07:21:00,
2013-08-21 03:26:00,62.6,60.8,30.04,West,264,0.0,0.0,94,0.00,,CLR,0.00,VWS V14.01,2013-08-21 07:26:00,
2013-08-21 03:30:00,62.4,61.0,30.04,West,264,0.0,0.0,95,0.00,,CLR,0.00,VWS V15.00,2013-08-21 07:30:00,
2013-08-21 03:31:00,62.5,61.0,30.04,West,264,0.0,0.0,95,0.00,,CLR,0.00,VWS V14.01,2013-08-21 07:31:00,
2013-08-21 03:36:00,62.4,61.0,30.04,West,264,0.0,0.0,95,0.00,,CLR,0.00,VWS V14.01,2013-08-21 07:36:00,
2013-08-21 03:41:00,62.4,61.0,30.04,West,264,0.0,0.0,95,0.00,,CLR,0.00,VWS V14.01,2013-08-21 07:41:00,
2013-08-21 03:45:00,62.3,60.8,30.04,West,264,0.0,0.0,95,0.00,,CLR,0.00,VWS V15.00,2013-08-21 07:45:00,
2013-08-21 03:46:00,62.3,60.8,30.04,West,264,0.0,0.0,95,0.00,,CLR,0.00,VWS V14.01,2013-08-21 07:46:00,
2013-08-21 03:51:00,62.2,60.8,30.04,West,264,0.0,0.0,95,0.00,,CLR,0.00,VWS V14.01,2013-08-21 07:51:00,
2013-08-21 03:56:00,62.0,60.6,30.04,West,264,0.0,0.0,95,0.00,,CLR,0.00,VWS V14.01,2013-08-21 07:56:00,
2013-08-21 04:00:00,61.8,60.7,30.04,West,264,0.0,0.0,96,0.00,,CLR,0.00,VWS V15.00,2013-08-21 08:00:00,
2013-08-21 04:01:00,61.9,60.8,30.04,West,264,0.0,0.0,96,0.00,,CLR,0.00,VWS V14.01,2013-08-21 08:01:00,
2013-08-21 04:06:00,61.7,60.5,30.04,West,264,0.0,0.0,96,0.00,,CLR,0.00,VWS V14.01,2013-08-21 08:06:00,
2013-08-21 04:11:00,61.8,60.7,30.05,West,264,0.0,0.0,96,0.00,,CLR,0.00,VWS V14.01,2013-08-21 08:11:00,
2013-08-21 04:15:00,61.8,60.7,30.04,West,264,0.0,0.0,96,0.00,,CLR,0.00,VWS V14.01,2013-08-21 08:15:00,
2013-08-21 04:16:00,61.9,61.0,30.04,West,264,0.0,0.0,97,0.00,,CLR,0.00,VWS V14.01,2013-08-21 08:16:00,
2013-08-21 04:21:00,61.7,60.5,30.05,West,264,0.0,0.0,96,0.00,,CLR,0.00,VWS V14.01,2013-08-21 08:21:00,
2013-08-21 04:26:00,61.6,60.5,30.05,West,264,0.0,0.0,96,0.00,,CLR,0.00,VWS V14.01,2013-08-21 08:26:00,
2013-08-21 04:30:00,61.6,60.7,30.05,West,264,0.0,0.0,97,0.00,,CLR,0.00,VWS V14.01,2013-08-21 08:30:00,
2013-08-21 04:31:00,61.6,60.7,30.05,West,264,0.0,0.0,97,0.00,,CLR,0.00,VWS V14.01,2013-08-21 08:31:00,
2013-08-21 04:36:00,61.5,60.3,30.05,West,264,0.0,0.0,96,0.00,,CLR,0.00,VWS V14.01,2013-08-21 08:36:00,
2013-08-21 04:41:00,61.3,60.2,30.05,West,265,0.0,0.0,96,0.00,,CLR,0.00,VWS V14.01,2013-08-21 08:41:00,
2013-08-21 04:45:00,61.1,60.2,30.05,West,265,0.0,0.0,97,0.00,,CLR,0.00,VWS V14.01,2013-08-21 08:45:00,
2013-08-21 04:46:00,61.1,60.0,30.05,West,264,0.0,0.0,96,0.00,,CLR,0.00,VWS V14.01,2013-08-21 08:46:00,
2013-08-21 04:51:00,61.1,60.2,30.05,West,264,0.0,0.0,97,0.00,,CLR,0.00,VWS V14.01,2013-08-21 08:51:00,
2013-08-21 04:56:00,61.1,60.2,30.05,West,264,0.0,0.0,97,0.00,,CLR,0.00,VWS V14.01,2013-08-21 08:56:00,
2013-08-21 05:00:00,61.0,60.2,30.05,West,264,0.0,0.0,97,0.00,,CLR,0.00,VWS V14.01,2013-08-21 09:00:00,
2013-08-21 05:01:00,61.1,60.2,30.05,West,265,0.0,0.0,97,0.00,,CLR,0.00,VWS V14.01,2013-08-21 09:01:00,
2013-08-21 05:06:00,61.0,60.2,30.05,West,264,0.0,0.0,97,0.00,,CLR,0.00,VWS V14.01,2013-08-21 09:06:00,
2013-08-21 05:11:00,61.0,60.4,30.05,West,264,0.0,0.0,98,0.00,,CLR,0.00,VWS V14.01,2013-08-21 09:11:00,
2013-08-21 05:15:00,61.0,60.4,30.05,West,264,0.0,0.0,98,0.00,,CLR,0.00,VWS V14.01,2013-08-21 09:15:00,
2013-08-21 05:16:00,61.0,60.4,30.05,West,264,0.0,0.0,98,0.00,,CLR,0.00,VWS V14.01,2013-08-21 09:16:00,
2013-08-21 05:21:00,61.1,60.5,30.05,West,264,0.0,0.0,98,0.00,,CLR,0.00,VWS V14.01,2013-08-21 09:21:00,
2013-08-21 05:26:00,61.2,60.6,30.06,West,264,0.0,0.0,98,0.00,,CLR,0.00,VWS V14.01,2013-08-21 09:26:00,
2013-08-21 05:30:00,61.2,60.6,30.06,West,264,0.0,0.0,98,0.00,,CLR,0.00,VWS V14.01,2013-08-21 09:30:00,
2013-08-21 05:31:00,61.2,60.6,30.06,West,264,0.0,0.0,98,0.00,,CLR,0.00,VWS V14.01,2013-08-21 09:31:00,
2013-08-21 05:36:00,61.2,60.6,30.06,West,264,0.0,0.0,98,0.00,,CLR,0.00,VWS V14.01,2013-08-21 09:36:00,
2013-08-21 05:41:00,61.0,60.2,30.06,West,264,0.0,0.0,97,0.00,,CLR,0.00,VWS V14.01,2013-08-21 09:41:00,
2013-08-21 05:45:00,60.8,60.0,30.06,West,264,0.0,0.0,97,0.00,,CLR,0.00,VWS V14.01,2013-08-21 09:45:00,
2013-08-21 05:46:00,60.8,60.0,30.06,West,264,0.0,0.0,97,0.00,,CLR,0.00,VWS V14.01,2013-08-21 09:46:00,
2013-08-21 05:51:00,60.7,59.8,30.06,West,264,0.0,0.0,97,0.00,,CLR,0.00,VWS V14.01,2013-08-21 09:51:00,
2013-08-21 05:56:00,60.6,60.0,30.06,West,264,0.0,0.0,98,0.00,,CLR,0.00,VWS V14.01,2013-08-21 09:56:00,
2013-08-21 06:00:00,60.7,60.1,30.06,West,264,0.0,0.0,98,0.00,,CLR,0.00,VWS V14.01,2013-08-21 10:00:00,
2013-08-21 06:01:00,60.6,60.0,30.06,West,264,0.0,0.0,98,0.00,,CLR,0.00,VWS V14.01,2013-08-21 10:01:00,
2013-08-21 06:06:00,60.7,60.1,30.06,West,264,0.0,0.0,98,0.00,,CLR,0.00,VWS V14.01,2013-08-21 10:06:00,
2013-08-21 06:11:00,60.7,60.1,30.07,West,264,0.0,0.0,98,0.00,,CLR,0.00,VWS V14.01,2013-08-21 10:11:00,
2013-08-21 06:15:00,60.7,60.1,30.07,West,264,0.0,0.0,98,0.00,,CLR,0.00,VWS V14.01,2013-08-21 10:15:00,
2013-08-21 06:16:00,60.7,60.1,30.07,West,264,0.0,0.0,98,0.00,,CLR,0.00,VWS V14.01,2013-08-21 10:16:00,
2013-08-21 06:21:00,60.8,60.2,30.07,West,264,0.0,0.0,98,0.00,,CLR,0.00,VWS V14.01,2013-08-21 10:21:00,
2013-08-21 06:26:00,60.8,60.2,30.07,West,264,0.0,0.0,98,0.00,,CLR,0.00,VWS V14.01,2013-08-21 10:26:00,
2013-08-21 06:30:00,60.9,60.3,30.07,West,264,0.0,0.0,98,0.00,,CLR,0.00,VWS V14.01,2013-08-21 10:30:00,
2013-08-21 06:31:00,60.9,60.3,30.07,West,264,0.0,0.0,98,0.00,,CLR,0.00,VWS V14.01,2013-08-21 10:31:00,
2013-08-21 06:36:00,60.9,60.3,30.07,West,264,0.0,0.0,98,0.00,,CLR,0.00,VWS V14.01,2013-08-21 10:36:00,
2013-08-21 06:41:00,61.1,60.5,30.07,West,264,0.0,0.0,98,0.00,,CLR,0.00,VWS V14.01,2013-08-21 10:41:00,
2013-08-21 06:45:00,61.3,60.7,30.07,West,264,0.0,0.0,98,0.00,,CLR,0.00,VWS V14.01,2013-08-21 10:45:00,
2013-08-21 06:46:00,61.3,60.7,30.07,West,264,0.0,0.0,98,0.00,,CLR,0.00,VWS V14.01,2013-08-21 10:46:00,
2013-08-21 06:51:00,61.8,61.2,30.07,West,264,0.0,0.0,98,0.00,,CLR,0.00,VWS V14.01,2013-08-21 10:51:00,
2013-08-21 06:56:00,62.4,61.8,30.08,West,264,0.0,0.0,98,0.00,,CLR,0.00,VWS V14.01,2013-08-21 10:56:00,
2013-08-21 07:00:00,63.3,63.0,30.07,West,264,0.0,0.0,99,0.00,,CLR,0.00,VWS V14.01,2013-08-21 11:00:00,
2013-08-21 07:01:00,63.2,62.9,30.07,West,264,0.0,0.0,99,0.00,,CLR,0.00,VWS V14.01,2013-08-21 11:01:00,
2013-08-21 07:06:00,64.1,63.5,30.07,West,264,0.0,0.0,98,0.00,,CLR,0.00,VWS V14.01,2013-08-21 11:06:00,
2013-08-21 07:11:00,64.9,64.3,30.07,West,264,0.0,0.0,98,0.00,,CLR,0.00,VWS V14.01,2013-08-21 11:11:00,
2013-08-21 07:15:00,65.6,64.4,30.08,West,265,0.0,0.0,96,0.00,,CLR,0.00,VWS V14.01,2013-08-21 11:15:00,
2013-08-21 07:16:00,65.5,64.3,30.08,West,264,0.0,0.0,96,0.00,,CLR,0.00,VWS V14.01,2013-08-21 11:16:00,
2013-08-21 07:21:00,66.3,64.8,30.08,West,264,0.0,0.0,95,0.00,,CLR,0.00,VWS V14.01,2013-08-21 11:21:00,
2013-08-21 07:26:00,67.2,65.1,30.08,West,265,0.0,0.0,93,0.00,,CLR,0.00,VWS V14.01,2013-08-21 11:26:00,
2013-08-21 07:30:00,68.0,65.3,30.08,West,264,0.0,0.0,91,0.00,,CLR,0.00,VWS V14.01,2013-08-21 11:30:00,
2013-08-21 07:31:00,67.9,65.2,30.08,West,264,0.0,0.0,91,0.00,,CLR,0.00,VWS V14.01,2013-08-21 11:31:00,
2013-08-21 07:36:00,68.9,65.5,30.08,West,264,0.0,0.0,89,0.00,,CLR,0.00,VWS V14.01,2013-08-21 11:36:00,
2013-08-21 07:41:00,69.7,65.3,30.08,West,263,0.0,0.0,86,0.00,,CLR,0.00,VWS V14.01,2013-08-21 11:41:00,
2013-08-21 07:45:00,70.3,65.2,30.08,West,264,0.0,1.0,84,0.00,,CLR,0.00,VWS V15.00,2013-08-21 11:45:00,
2013-08-21 07:46:00,70.2,65.1,30.08,West,264,0.0,1.0,84,0.00,,CLR,0.00,VWS V14.01,2013-08-21 11:46:00,
2013-08-21 07:51:00,70.8,65.4,30.08,West,262,0.0,0.0,83,0.00,,CLR,0.00,VWS V14.01,2013-08-21 11:51:00,
2013-08-21 07:56:00,71.5,65.4,30.08,West,264,0.0,0.0,81,0.00,,CLR,0.00,VWS V14.01,2013-08-21 11:56:00,
2013-08-21 08:00:00,72.0,65.9,30.08,West,264,0.0,0.0,81,0.00,,CLR,0.00,VWS V14.01,2013-08-21 12:00:00,
2013-08-21 08:01:00,71.9,65.8,30.08,West,265,0.0,0.0,81,0.00,,CLR,0.00,VWS V14.01,2013-08-21 12:01:00,
2013-08-21 08:06:00,72.5,66.0,30.08,West,264,0.0,0.0,80,0.00,,CLR,0.00,VWS V14.01,2013-08-21 12:06:00,
2013-08-21 08:11:00,72.7,65.8,30.08,West,263,0.0,0.0,79,0.00,,CLR,0.00,VWS V14.01,2013-08-21 12:11:00,
2013-08-21 08:15:00,73.2,65.9,30.08,West,263,0.0,0.0,78,0.00,,CLR,0.00,VWS V14.01,2013-08-21 12:15:00,
2013-08-21 08:16:00,73.2,65.9,30.08,West,263,0.0,0.0,78,0.00,,CLR,0.00,VWS V14.01,2013-08-21 12:16:00,
2013-08-21 08:21:00,73.2,66.3,30.08,SW,228,1.0,1.0,79,0.00,,CLR,0.00,VWS V14.01,2013-08-21 12:21:00,
2013-08-21 08:26:00,73.5,66.6,30.08,SW,222,0.0,0.0,79,0.00,,CLR,0.00,VWS V14.01,2013-08-21 12:26:00,
2013-08-21 08:30:00,73.6,66.3,30.08,WNW,288,0.0,1.0,78,0.00,,CLR,0.00,VWS V14.01,2013-08-21 12:30:00,
2013-08-21 08:31:00,73.6,66.3,30.08,WNW,288,0.0,2.0,78,0.00,,CLR,0.00,VWS V14.01,2013-08-21 12:31:00,
2013-08-21 08:36:00,74.0,66.7,30.08,WNW,300,0.0,1.0,78,0.00,,CLR,0.00,VWS V14.01,2013-08-21 12:36:00,
2013-08-21 08:41:00,74.5,67.2,30.08,WSW,250,0.0,1.0,78,0.00,,CLR,0.00,VWS V14.01,2013-08-21 12:41:00,
2013-08-21 08:45:00,75.1,67.4,30.08,WSW,252,1.0,1.0,77,0.00,,CLR,0.00,VWS V14.01,2013-08-21 12:45:00,
2013-08-21 08:46:00,75.1,67.4,30.08,WSW,250,0.0,1.0,77,0.00,,CLR,0.00,VWS V14.01,2013-08-21 12:46:00,
2013-08-21 08:51:00,75.2,67.5,30.08,ESE,108,0.0,1.0,77,0.00,,CLR,0.00,VWS V14.01,2013-08-21 12:51:00,
2013-08-21 08:56:00,75.2,66.7,30.08,West,268,0.0,1.0,75,0.00,,CLR,0.00,VWS V14.01,2013-08-21 12:56:00,
2013-08-21 09:00:00,75.3,67.6,30.08,SE,138,0.0,1.0,77,0.00,,CLR,0.00,VWS V14.01,2013-08-21 13:00:00,
2013-08-21 09:01:00,75.2,67.5,30.08,SE,139,0.0,1.0,77,0.00,,CLR,0.00,VWS V14.01,2013-08-21 13:01:00,
2013-08-21 09:06:00,75.8,67.3,30.08,ESE,113,0.0,1.0,75,0.00,,CLR,0.00,VWS V14.01,2013-08-21 13:06:00,
2013-08-21 09:11:00,76.7,68.2,30.08,ESE,103,0.0,1.0,75,0.00,,CLR,0.00,VWS V14.01,2013-08-21 13:11:00,
2013-08-21 09:15:00,77.1,68.6,30.08,ESE,103,0.0,1.0,75,0.00,,CLR,0.00,VWS V14.01,2013-08-21 13:15:00,
2013-08-21 09:16:00,77.0,68.1,30.08,ESE,103,0.0,1.0,74,0.00,,CLR,0.00,VWS V14.01,2013-08-21 13:16:00,
2013-08-21 09:21:00,77.5,68.6,30.08,East,101,0.0,1.0,74,0.00,,CLR,0.00,VWS V14.01,2013-08-21 13:21:00,
2013-08-21 09:26:00,78.0,68.7,30.08,ESE,116,0.0,1.0,73,0.00,,CLR,0.00,VWS V14.01,2013-08-21 13:26:00,
2013-08-21 09:30:00,78.2,69.2,30.08,ESE,115,0.0,0.0,74,0.00,,CLR,0.00,VWS V14.01,2013-08-21 13:30:00,
2013-08-21 09:31:00,78.2,69.2,30.08,ESE,114,0.0,0.0,74,0.00,,CLR,0.00,VWS V14.01,2013-08-21 13:31:00,
2013-08-21 09:36:00,78.1,69.1,30.08,ESE,105,0.0,2.0,74,0.00,,CLR,0.00,VWS V14.01,2013-08-21 13:36:00,
2013-08-21 09:41:00,78.3,69.3,30.08,East,87,1.0,2.0,74,0.00,,CLR,0.00,VWS V14.01,2013-08-21 13:41:00,
2013-08-21 09:45:00,79.0,68.8,30.08,South,183,0.0,1.0,71,0.00,,CLR,0.00,VWS V14.01,2013-08-21 13:45:00,
2013-08-21 09:46:00,79.0,68.8,30.08,ESE,113,1.0,1.0,71,0.00,,CLR,0.00,VWS V14.01,2013-08-21 13:46:00,
2013-08-21 09:51:00,79.0,68.4,30.08,WSW,253,2.0,2.0,70,0.00,,CLR,0.00,VWS V14.01,2013-08-21 13:51:00,
2013-08-21 09:56:00,78.9,67.9,30.08,West,262,0.0,1.0,69,0.00,,CLR,0.00,VWS V14.01,2013-08-21 13:56:00,
2013-08-21 10:00:00,79.0,68.4,30.08,West,260,0.0,1.0,70,0.00,,CLR,0.00,VWS V14.01,2013-08-21 14:00:00,
2013-08-21 10:01:00,79.0,68.4,30.08,West,259,0.0,1.0,70,0.00,,CLR,0.00,VWS V14.01,2013-08-21 14:01:00,
2013-08-21 10:06:00,79.4,67.1,30.08,NNE,28,0.0,0.0,66,0.00,,CLR,0.00,VWS V14.01,2013-08-21 14:06:00,
2013-08-21 10:11:00,79.6,68.1,30.08,West,277,1.0,1.0,68,0.00,,CLR,0.00,VWS V14.01,2013-08-21 14:11:00,
2013-08-21 10:15:00,79.7,67.8,30.08,East,93,0.0,1.0,67,0.00,,CLR,0.00,VWS V14.01,2013-08-21 14:15:00,
2013-08-21 10:16:00,79.7,67.8,30.08,East,93,1.0,1.0,67,0.00,,CLR,0.00,VWS V14.01,2013-08-21 14:16:00,
2013-08-21 10:21:00,80.0,66.7,30.08,West,278,0.0,2.0,64,0.00,,CLR,0.00,VWS V14.01,2013-08-21 14:21:00,
2013-08-21 10:26:00,80.5,68.1,30.08,East,91,0.0,1.0,66,0.00,,CLR,0.00,VWS V14.01,2013-08-21 14:26:00,
2013-08-21 10:30:00,81.1,68.2,30.08,SE,141,0.0,1.0,65,0.00,,CLR,0.00,VWS V14.01,2013-08-21 14:30:00,
2013-08-21 10:31:00,81.0,68.1,30.08,SE,136,0.0,1.0,65,0.00,,CLR,0.00,VWS V14.01,2013-08-21 14:31:00,
2013-08-21 10:36:00,81.5,67.2,30.08,South,188,1.0,2.0,62,0.00,,CLR,0.00,VWS V14.01,2013-08-21 14:36:00,
2013-08-21 10:41:00,81.6,67.8,30.07,East,93,0.0,1.0,63,0.00,,CLR,0.00,VWS V14.01,2013-08-21 14:41:00,
2013-08-21 10:45:00,81.6,67.8,30.07,West,264,2.0,2.0,63,0.00,,CLR,0.00,VWS V14.01,2013-08-21 14:45:00,
2013-08-21 10:46:00,81.6,67.8,30.07,West,281,1.0,1.0,63,0.00,,CLR,0.00,VWS V14.01,2013-08-21 14:46:00,
2013-08-21 10:51:00,81.3,67.1,30.07,West,274,0.0,1.0,62,0.00,,CLR,0.00,VWS V14.01,2013-08-21 14:51:00,
2013-08-21 10:55:00,81.7,68.3,30.07,SE,136,0.0,1.0,64,0.00,,CLR,0.00,VWS V14.01,2013-08-21 14:55:00,
2013-08-21 11:00:00,82.2,68.8,30.07,ENE,72,0.0,1.0,64,0.00,,CLR,0.00,VWS V14.01,2013-08-21 15:00:00,
2013-08-21 11:05:00,82.7,67.4,30.07,East,91,0.0,1.0,60,0.00,,CLR,0.00,VWS V14.01,2013-08-21 15:05:00,
2013-08-21 11:10:00,82.7,67.4,30.07,West,277,0.0,1.0,60,0.00,,CLR,0.00,VWS V14.01,2013-08-21 15:10:00,
2013-08-21 11:15:00,83.0,68.2,30.07,East,93,0.0,1.0,61,0.00,,CLR,0.00,VWS V14.01,2013-08-21 15:15:00,
2013-08-21 11:20:00,83.2,68.8,30.07,ESE,107,0.0,1.0,62,0.00,,CLR,0.00,VWS V14.01,2013-08-21 15:20:00,
2013-08-21 11:25:00,83.4,68.6,30.07,SW,227,0.0,1.0,61,0.00,,CLR,0.00,VWS V14.01,2013-08-21 15:25:00,
2013-08-21 11:30:00,83.7,67.9,30.07,WSW,248,1.0,1.0,59,0.00,,CLR,0.00,VWS V14.01,2013-08-21 15:30:00,
2013-08-21 11:35:00,83.5,68.7,30.07,West,259,0.0,1.0,61,0.00,,CLR,0.00,VWS V14.01,2013-08-21 15:35:00,
2013-08-21 11:40:00,83.7,68.8,30.07,WSW,242,1.0,1.0,61,0.00,,CLR,0.00,VWS V14.01,2013-08-21 15:40:00,
2013-08-21 11:45:00,83.7,68.8,30.07,SW,215,0.0,2.0,61,0.00,,CLR,0.00,VWS V14.01,2013-08-21 15:45:00,
2013-08-21 11:50:00,84.2,68.3,30.06,ESE,117,0.0,2.0,59,0.00,,CLR,0.00,VWS V14.01,2013-08-21 15:50:00,
2013-08-21 11:55:00,84.6,68.7,30.06,ESE,121,0.0,1.0,59,0.00,,CLR,0.00,VWS V14.01,2013-08-21 15:55:00,
2013-08-21 12:00:00,84.8,67.9,30.06,East,95,0.0,2.0,57,0.00,,CLR,0.00,VWS V14.01,2013-08-21 16:00:00,
2013-08-21 12:05:00,85.2,67.8,30.06,North,358,0.0,1.0,56,0.00,,CLR,0.00,VWS V14.01,2013-08-21 16:05:00,
2013-08-21 12:10:00,85.4,67.9,30.06,SE,134,1.0,2.0,56,0.00,,CLR,0.00,VWS V14.01,2013-08-21 16:10:00,
2013-08-21 12:15:00,85.6,67.6,30.06,NW,314,1.0,2.0,55,0.00,,CLR,0.00,VWS V14.01,2013-08-21 16:15:00,
2013-08-21 12:20:00,85.6,68.1,30.05,WSW,257,0.0,1.0,56,0.00,,CLR,0.00,VWS V14.01,2013-08-21 16:20:00,
2013-08-21 12:25:00,85.4,67.9,30.05,East,100,0.0,3.0,56,0.00,,CLR,0.00,VWS V14.01,2013-08-21 16:25:00,
2013-08-21 12:30:00,85.8,68.8,30.05,East,91,0.0,2.0,57,0.00,,CLR,0.00,VWS V14.01,2013-08-21 16:30:00,
2013-08-21 12:35:00,85.5,67.5,30.05,NNE,32,1.0,3.0,55,0.00,,CLR,0.00,VWS V14.01,2013-08-21 16:35:00,
2013-08-21 12:40:00,85.1,68.7,30.05,ESE,111,2.0,2.0,58,0.00,,CLR,0.00,VWS V14.01,2013-08-21 16:40:00,
2013-08-21 12:45:00,85.4,68.4,30.05,SW,231,0.0,2.0,57,0.00,,CLR,0.00,VWS V14.01,2013-08-21 16:45:00,
2013-08-21 12:50:00,85.9,66.8,30.05,WSW,250,0.0,2.0,53,0.00,,CLR,0.00,VWS V14.01,2013-08-21 16:50:00,
2013-08-21 12:55:00,85.6,66.0,30.05,NNW,336,1.0,3.0,52,0.00,,CLR,0.00,VWS V14.01,2013-08-21 16:55:00,
2013-08-21 13:00:00,85.7,67.2,30.05,SE,136,1.0,3.0,54,0.00,,CLR,0.00,VWS V14.01,2013-08-21 17:00:00,
2013-08-21 13:05:00,85.9,68.4,30.05,SE,142,1.0,4.0,56,0.00,,CLR,0.00,VWS V14.01,2013-08-21 17:05:00,
2013-08-21 13:10:00,86.0,67.4,30.04,West,263,0.0,2.0,54,0.00,,CLR,0.00,VWS V14.01,2013-08-21 17:10:00,
2013-08-21 13:15:00,86.1,67.5,30.04,ESE,107,0.0,1.0,54,0.00,,CLR,0.00,VWS V14.01,2013-08-21 17:15:00,
2013-08-21 13:20:00,86.6,66.9,30.04,West,270,1.0,1.0,52,0.00,,CLR,0.00,VWS V14.01,2013-08-21 17:20:00,
2013-08-21 13:25:00,86.3,68.2,30.04,SE,141,0.0,5.0,55,0.00,,CLR,0.00,VWS V14.01,2013-08-21 17:25:00,
2013-08-21 13:30:00,86.7,68.6,30.04,SE,143,1.0,2.0,55,0.00,,CLR,0.00,VWS V14.01,2013-08-21 17:30:00,
2013-08-21 13:35:00,87.1,68.4,30.03,ESE,113,0.0,1.0,54,0.00,,CLR,0.00,VWS V14.01,2013-08-21 17:35:00,
2013-08-21 13:40:00,87.1,68.4,30.03,ENE,60,0.0,1.0,54,0.00,,CLR,0.00,VWS V14.01,2013-08-21 17:40:00,
2013-08-21 13:45:00,87.2,67.4,30.03,SE,141,2.0,3.0,52,0.00,,CLR,0.00,VWS V14.01,2013-08-21 17:45:00,
2013-08-21 13:50:00,87.2,66.9,30.03,South,173,2.0,5.0,51,0.00,,CLR,0.00,VWS V14.01,2013-08-21 17:50:00,
2013-08-21 13:55:00,87.0,67.3,30.03,East,100,1.0,3.0,52,0.00,,CLR,0.00,VWS V14.01,2013-08-21 17:55:00,
2013-08-21 14:00:00,87.1,69.0,30.03,South,188,1.0,2.0,55,0.00,,CLR,0.00,VWS V14.01,2013-08-21 18:00:00,
2013-08-21 14:05:00,87.3,68.6,30.03,East,91,1.0,5.0,54,0.00,,CLR,0.00,VWS V14.01,2013-08-21 18:05:00,
2013-08-21 14:10:00,87.0,67.8,30.03,SSE,156,1.0,3.0,53,0.00,,CLR,0.00,VWS V14.01,2013-08-21 18:10:00,
2013-08-21 14:15:00,86.9,67.7,30.02,South,169,0.0,2.0,53,0.00,,CLR,0.00,VWS V14.01,2013-08-21 18:15:00,
2013-08-21 14:20:00,87.0,67.8,30.02,SW,221,0.0,2.0,53,0.00,,CLR,0.00,VWS V14.01,2013-08-21 18:20:00,
2013-08-21 14:25:00,86.8,66.5,30.02,NNW,347,1.0,2.0,51,0.00,,CLR,0.00,VWS V14.01,2013-08-21 18:25:00,
2013-08-21 14:30:00,86.4,67.8,30.02,SSW,204,0.0,3.0,54,0.00,,CLR,0.00,VWS V14.01,2013-08-21 18:30:00,
2013-08-21 14:35:00,86.5,67.3,30.02,East,83,0.0,3.0,53,0.00,,CLR,0.00,VWS V14.01,2013-08-21 18:35:00,
2013-08-21 14:40:00,86.9,66.6,30.02,SE,132,0.0,2.0,51,0.00,,CLR,0.00,VWS V14.01,2013-08-21 18:40:00,
2013-08-21 14:45:00,87.1,67.4,30.02,SSE,153,0.0,2.0,52,0.00,,CLR,0.00,VWS V14.01,2013-08-21 18:45:00,
2013-08-21 14:50:00,87.1,67.4,30.02,ENE,60,0.0,1.0,52,0.00,,CLR,0.00,VWS V14.01,2013-08-21 18:50:00,
2013-08-21 14:55:00,87.1,66.8,30.02,SE,127,0.0,2.0,51,0.00,,CLR,0.00,VWS V14.01,2013-08-21 18:55:00,
2013-08-21 15:00:00,87.5,66.6,30.01,ESE,102,0.0,1.0,50,0.00,,CLR,0.00,VWS V14.01,2013-08-21 19:00:00,
2013-08-21 15:05:00,87.4,67.1,30.01,South,179,1.0,3.0,51,0.00,,CLR,0.00,VWS V14.01,2013-08-21 19:05:00,
2013-08-21 15:10:00,87.4,67.6,30.01,SE,131,1.0,1.0,52,0.00,,CLR,0.00,VWS V14.01,2013-08-21 19:10:00,
2013-08-21 15:15:00,87.9,67.5,30.01,ESE,117,0.0,1.0,51,0.00,,CLR,0.00,VWS V14.01,2013-08-21 19:15:00,
2013-08-21 15:20:00,87.6,66.7,30.01,NW,309,1.0,2.0,50,0.00,,CLR,0.00,VWS V14.01,2013-08-21 19:20:00,
2013-08-21 15:25:00,87.2,66.3,30.01,ENE,60,0.0,3.0,50,0.00,,CLR,0.00,VWS V14.01,2013-08-21 19:25:00,
2013-08-21 15:30:00,87.0,67.8,30.01,ENE,60,0.0,1.0,53,0.00,,CLR,0.00,VWS V14.01,2013-08-21 19:30:00,
2013-08-21 15:35:00,86.9,66.6,30.00,NE,41,1.0,2.0,51,0.00,,CLR,0.00,VWS V14.01,2013-08-21 19:35:00,
2013-08-21 15:40:00,86.9,67.2,30.00,North,4,0.0,1.0,52,0.00,,CLR,0.00,VWS V14.01,2013-08-21 19:40:00,
2013-08-21 15:45:00,86.6,67.4,30.00,NNW,346,0.0,2.0,53,0.00,,CLR,0.00,VWS V14.01,2013-08-21 19:45:00,
2013-08-21 15:50:00,86.3,66.6,30.00,SE,143,0.0,2.0,52,0.00,,CLR,0.00,VWS V14.01,2013-08-21 19:50:00,
2013-08-21 15:55:00,86.1,65.9,30.00,South,190,0.0,1.0,51,0.00,,CLR,0.00,VWS V14.01,2013-08-21 19:55:00,
2013-08-21 16:00:00,86.0,67.4,30.00,SE,139,0.0,1.0,54,0.00,,CLR,0.00,VWS V14.01,2013-08-21 20:00:00,
2013-08-21 16:05:00,85.9,66.8,30.00,SE,143,0.0,0.0,53,0.00,,CLR,0.00,VWS V14.01,2013-08-21 20:05:00,
2013-08-21 16:10:00,85.9,68.9,30.00,SSE,167,0.0,2.0,57,0.00,,CLR,0.00,VWS V14.01,2013-08-21 20:10:00,
2013-08-21 16:15:00,85.7,68.7,29.99,SSE,166,0.0,1.0,57,0.00,,CLR,0.00,VWS V14.01,2013-08-21 20:15:00,
2013-08-21 16:20:00,85.7,68.2,29.99,SSE,166,0.0,0.0,56,0.00,,CLR,0.00,VWS V14.01,2013-08-21 20:20:00,
2013-08-21 16:25:00,86.0,68.0,29.99,SE,143,0.0,1.0,55,0.00,,CLR,0.00,VWS V14.01,2013-08-21 20:25:00,
2013-08-21 16:30:00,85.7,69.2,29.99,SW,228,0.0,1.0,58,0.00,,CLR,0.00,VWS V14.01,2013-08-21 20:30:00,
2013-08-21 16:35:00,85.4,67.4,29.99,ENE,65,0.0,1.0,55,0.00,,CLR,0.00,VWS V14.01,2013-08-21 20:35:00,
2013-08-21 16:40:00,85.4,67.9,29.99,NE,46,1.0,1.0,56,0.00,,CLR,0.00,VWS V14.01,2013-08-21 20:40:00,
2013-08-21 16:45:00,85.2,67.8,29.99,West,263,0.0,1.0,56,0.00,,CLR,0.00,VWS V14.01,2013-08-21 20:45:00,
2013-08-21 16:50:00,85.3,67.3,29.99,ESE,115,0.0,0.0,55,0.00,,CLR,0.00,VWS V14.01,2013-08-21 20:50:00,
2013-08-21 16:55:00,85.7,67.7,29.98,ESE,105,0.0,0.0,55,0.00,,CLR,0.00,VWS V14.01,2013-08-21 20:55:00,
2013-08-21 17:00:00,85.7,67.7,29.98,NE,49,0.0,0.0,55,0.00,,CLR,0.00,VWS V14.01,2013-08-21 21:00:00,
2013-08-21 17:05:00,85.2,67.2,29.98,ENE,70,2.0,2.0,55,0.00,,CLR,0.00,VWS V14.01,2013-08-21 21:05:00,
2013-08-21 17:10:00,84.7,67.3,29.98,WSW,256,0.0,1.0,56,0.00,,CLR,0.00,VWS V14.01,2013-08-21 21:10:00,
2013-08-21 17:15:00,84.7,68.3,29.98,NNW,333,1.0,1.0,58,0.00,,CLR,0.00,VWS V14.01,2013-08-21 21:15:00,
2013-08-21 17:20:00,85.0,68.1,29.98,WNW,295,0.0,2.0,57,0.00,,CLR,0.00,VWS V14.01,2013-08-21 21:20:00,
2013-08-21 17:25:00,85.0,68.1,29.98,ESE,118,0.0,1.0,57,0.00,,CLR,0.00,VWS V14.01,2013-08-21 21:25:00,
2013-08-21 17:30:00,85.1,67.7,29.98,SE,129,0.0,0.0,56,0.00,,CLR,0.00,VWS V14.01,2013-08-21 21:30:00,
2013-08-21 17:35:00,85.4,67.4,29.98,SW,235,0.0,1.0,55,0.00,,CLR,0.00,VWS V14.01,2013-08-21 21:35:00,
2013-08-21 17:40:00,85.7,68.2,29.98,South,188,0.0,0.0,56,0.00,,CLR,0.00,VWS V14.01,2013-08-21 21:40:00,
2013-08-21 17:45:00,85.8,68.3,29.98,South,188,0.0,0.0,56,0.00,,CLR,0.00,VWS V14.01,2013-08-21 21:45:00,
2013-08-21 17:50:00,85.8,69.3,29.98,South,188,0.0,0.0,58,0.00,,CLR,0.00,VWS V14.01,2013-08-21 21:50:00,
2013-08-21 17:55:00,85.1,69.7,29.98,South,188,0.0,0.0,60,0.00,,CLR,0.00,VWS V14.01,2013-08-21 21:55:00,
2013-08-21 18:00:00,84.5,69.6,29.98,South,188,0.0,0.0,61,0.00,,CLR,0.00,VWS V14.01,2013-08-21 22:00:00,
2013-08-21 18:05:00,84.0,70.1,29.98,South,189,0.0,0.0,63,0.00,,CLR,0.00,VWS V14.01,2013-08-21 22:05:00,
2013-08-21 18:10:00,83.3,70.8,29.98,South,188,0.0,0.0,66,0.00,,CLR,0.00,VWS V14.01,2013-08-21 22:10:00,
2013-08-21 18:15:00,82.6,70.5,29.98,South,188,0.0,0.0,67,0.00,,CLR,0.00,VWS V14.01,2013-08-21 22:15:00,
2013-08-21 18:20:00,81.9,69.9,29.98,South,188,0.0,0.0,67,0.00,,CLR,0.00,VWS V14.01,2013-08-21 22:20:00,
2013-08-21 18:25:00,81.4,69.8,29.98,South,188,0.0,0.0,68,0.00,,CLR,0.00,VWS V14.01,2013-08-21 22:25:00,
2013-08-21 18:30:00,80.8,70.5,29.97,South,191,0.0,0.0,71,0.00,,CLR,0.00,VWS V14.01,2013-08-21 22:30:00,
2013-08-21 18:35:00,80.1,70.3,29.97,South,191,0.0,0.0,72,0.00,,CLR,0.00,VWS V14.01,2013-08-21 22:35:00,
2013-08-21 18:40:00,79.6,71.0,29.97,South,191,0.0,0.0,75,0.00,,CLR,0.00,VWS V14.01,2013-08-21 22:40:00,
2013-08-21 18:45:00,79.0,70.0,29.97,South,191,0.0,0.0,74,0.00,,CLR,0.00,VWS V14.01,2013-08-21 22:45:00,
2013-08-21 18:50:00,78.6,70.0,29.97,South,191,0.0,0.0,75,0.00,,CLR,0.00,VWS V14.01,2013-08-21 22:50:00,
2013-08-21 18:55:00,78.1,69.9,29.97,South,191,0.0,0.0,76,0.00,,CLR,0.00,VWS V14.01,2013-08-21 22:55:00,
2013-08-21 19:00:00,77.7,70.7,29.97,South,191,0.0,0.0,79,0.00,,CLR,0.00,VWS V14.01,2013-08-21 23:00:00,
2013-08-21 19:05:00,77.2,69.8,29.97,South,191,0.0,0.0,78,0.00,,CLR,0.00,VWS V14.01,2013-08-21 23:05:00,
2013-08-21 19:10:00,76.8,69.8,29.97,South,191,0.0,0.0,79,0.00,,CLR,0.00,VWS V14.01,2013-08-21 23:10:00,
2013-08-21 19:15:00,76.4,69.4,29.97,South,191,0.0,0.0,79,0.00,,CLR,0.00,VWS V14.01,2013-08-21 23:15:00,
2013-08-21 19:20:00,76.1,69.1,29.97,South,191,0.0,0.0,79,0.00,,CLR,0.00,VWS V14.01,2013-08-21 23:20:00,
2013-08-21 19:25:00,75.7,68.7,29.97,South,191,0.0,0.0,79,0.00,,CLR,0.00,VWS V14.01,2013-08-21 23:25:00,
2013-08-21 19:30:00,75.3,68.7,29.97,South,191,0.0,0.0,80,0.00,,CLR,0.00,VWS V14.01,2013-08-21 23:30:00,
2013-08-21 19:35:00,75.1,69.2,29.97,South,191,0.0,0.0,82,0.00,,CLR,0.00,VWS V14.01,2013-08-21 23:35:00,
2013-08-21 19:40:00,74.9,68.7,29.97,South,191,0.0,0.0,81,0.00,,CLR,0.00,VWS V14.01,2013-08-21 23:40:00,
2013-08-21 19:45:00,74.6,68.8,29.97,South,191,0.0,0.0,82,0.00,,CLR,0.00,VWS V14.01,2013-08-21 23:45:00,
2013-08-21 19:50:00,74.4,68.2,29.97,South,191,0.0,0.0,81,0.00,,CLR,0.00,VWS V14.01,2013-08-21 23:50:00,
2013-08-21 19:55:00,74.1,68.3,29.97,South,191,0.0,0.0,82,0.00,,CLR,0.00,VWS V14.01,2013-08-21 23:55:00,
2013-08-21 20:00:00,73.8,68.0,29.97,South,191,0.0,0.0,82,0.00,,CLR,0.00,VWS V14.01,2013-08-22 00:00:00,
2013-08-21 20:05:00,73.5,67.7,29.97,South,191,0.0,0.0,82,0.00,,CLR,0.00,VWS V14.01,2013-08-22 00:05:00,
2013-08-21 20:10:00,73.4,67.9,29.97,South,191,0.0,0.0,83,0.00,,CLR,0.00,VWS V14.01,2013-08-22 00:10:00,
2013-08-21 20:15:00,73.2,67.4,29.97,South,191,0.0,0.0,82,0.00,,CLR,0.00,VWS V14.01,2013-08-22 00:15:00,
2013-08-21 20:20:00,73.2,67.4,29.98,South,191,0.0,0.0,82,0.00,,CLR,0.00,VWS V14.01,2013-08-22 00:20:00,
2013-08-21 20:25:00,73.2,67.7,29.98,South,191,0.0,0.0,83,0.00,,CLR,0.00,VWS V14.01,2013-08-22 00:25:00,
2013-08-21 20:30:00,73.1,67.3,29.98,South,191,0.0,0.0,82,0.00,,CLR,0.00,VWS V14.01,2013-08-22 00:30:00,
2013-08-21 20:35:00,73.1,66.9,29.98,South,176,0.0,0.0,81,0.00,,CLR,0.00,VWS V14.01,2013-08-22 00:35:00,
2013-08-21 20:40:00,72.9,67.1,29.98,South,176,0.0,0.0,82,0.00,,CLR,0.00,VWS V14.01,2013-08-22 00:40:00,
2013-08-21 20:45:00,72.8,67.0,29.98,South,176,0.0,0.0,82,0.00,,CLR,0.00,VWS V14.01,2013-08-22 00:45:00,
2013-08-21 20:50:00,72.6,66.8,29.98,South,176,0.0,0.0,82,0.00,,CLR,0.00,VWS V14.01,2013-08-22 00:50:00,
2013-08-21 20:55:00,72.4,66.6,29.98,South,176,0.0,0.0,82,0.00,,CLR,0.00,VWS V14.01,2013-08-22 00:55:00,
2013-08-21 21:00:00,72.1,66.7,29.98,South,176,0.0,0.0,83,0.00,,CLR,0.00,VWS V14.01,2013-08-22 01:00:00,
2013-08-21 21:05:00,71.9,66.8,29.98,South,176,0.0,0.0,84,0.00,,CLR,0.00,VWS V14.01,2013-08-22 01:05:00,
2013-08-21 21:10:00,71.7,66.6,29.98,South,176,0.0,0.0,84,0.00,,CLR,0.00,VWS V14.01,2013-08-22 01:10:00,
2013-08-21 21:15:00,71.8,66.4,29.98,South,176,0.0,0.0,83,0.00,,CLR,0.00,VWS V14.01,2013-08-22 01:15:00,
2013-08-21 21:20:00,71.7,66.3,29.98,South,176,0.0,0.0,83,0.00,,CLR,0.00,VWS V14.01,2013-08-22 01:20:00,
2013-08-21 21:25:00,71.4,66.0,29.98,South,176,0.0,0.0,83,0.00,,CLR,0.00,VWS V14.01,2013-08-22 01:25:00,
2013-08-21 21:30:00,71.2,65.8,29.98,South,176,0.0,0.0,83,0.00,,CLR,0.00,VWS V14.01,2013-08-22 01:30:00,
2013-08-21 21:35:00,70.8,65.7,29.98,South,176,0.0,0.0,84,0.00,,CLR,0.00,VWS V14.01,2013-08-22 01:35:00,
2013-08-21 21:40:00,70.5,65.4,29.98,South,176,0.0,0.0,84,0.00,,CLR,0.00,VWS V14.01,2013-08-22 01:40:00,
2013-08-21 21:45:00,70.3,65.6,29.98,South,176,0.0,0.0,85,0.00,,CLR,0.00,VWS V14.01,2013-08-22 01:45:00,
2013-08-21 21:50:00,70.0,65.3,29.98,South,176,0.0,0.0,85,0.00,,CLR,0.00,VWS V14.01,2013-08-22 01:50:00,
2013-08-21 21:55:00,69.8,65.1,29.97,South,176,0.0,0.0,85,0.00,,CLR,0.00,VWS V14.01,2013-08-22 01:55:00,
2013-08-21 22:00:00,69.6,65.2,29.97,South,176,0.0,0.0,86,0.00,,CLR,0.00,VWS V14.01,2013-08-22 02:00:00,
2013-08-21 22:05:00,69.5,65.5,29.97,South,176,0.0,0.0,87,0.00,,CLR,0.00,VWS V14.01,2013-08-22 02:05:00,
2013-08-21 22:10:00,69.3,65.3,29.97,South,176,0.0,0.0,87,0.00,,CLR,0.00,VWS V14.01,2013-08-22 02:10:00,
2013-08-21 22:15:00,69.1,65.4,29.97,South,176,0.0,0.0,88,0.00,,CLR,0.00,VWS V14.01,2013-08-22 02:15:00,
2013-08-21 22:20:00,68.9,65.2,29.97,South,176,0.0,0.0,88,0.00,,CLR,0.00,VWS V14.01,2013-08-22 02:20:00,
2013-08-21 22:25:00,68.8,65.1,29.97,South,176,0.0,0.0,88,0.00,,CLR,0.00,VWS V14.01,2013-08-22 02:25:00,
2013-08-21 22:30:00,68.6,64.9,29.97,South,176,0.0,0.0,88,0.00,,CLR,0.00,VWS V14.01,2013-08-22 02:30:00,
2013-08-21 22:35:00,68.8,65.1,29.97,South,176,0.0,0.0,88,0.00,,CLR,0.00,VWS V14.01,2013-08-22 02:35:00,
2013-08-21 22:40:00,68.9,65.2,29.97,South,176,0.0,0.0,88,0.00,,CLR,0.00,VWS V14.01,2013-08-22 02:40:00,
2013-08-21 22:45:00,69.0,65.3,29.97,South,176,0.0,0.0,88,0.00,,CLR,0.00,VWS V14.01,2013-08-22 02:45:00,
2013-08-21 22:50:00,69.2,65.5,29.97,South,181,0.0,0.0,88,0.00,,CLR,0.00,VWS V14.01,2013-08-22 02:50:00,
2013-08-21 22:55:00,69.3,65.3,29.97,South,181,0.0,0.0,87,0.00,,CLR,0.00,VWS V14.01,2013-08-22 02:55:00,
2013-08-21 23:00:00,69.4,65.4,29.97,South,181,0.0,0.0,87,0.00,,CLR,0.00,VWS V14.01,2013-08-22 03:00:00,
2013-08-21 23:05:00,69.4,65.4,29.97,South,182,0.0,0.0,87,0.00,,CLR,0.00,VWS V14.01,2013-08-22 03:05:00,
2013-08-21 23:10:00,69.5,65.5,29.97,South,181,0.0,0.0,87,0.00,,CLR,0.00,VWS V14.01,2013-08-22 03:10:00,
2013-08-21 23:15:00,69.5,65.5,29.97,South,181,0.0,0.0,87,0.00,,CLR,0.00,VWS V14.01,2013-08-22 03:15:00,
2013-08-21 23:20:00,69.4,65.4,29.96,South,181,0.0,0.0,87,0.00,,CLR,0.00,VWS V14.01,2013-08-22 03:20:00,
2013-08-21 23:25:00,69.4,65.4,29.96,South,181,0.0,0.0,87,0.00,,CLR,0.00,VWS V14.01,2013-08-22 03:25:00,
2013-08-21 23:30:00,69.3,65.3,29.96,South,181,0.0,0.0,87,0.00,,CLR,0.00,VWS V14.01,2013-08-22 03:30:00,
2013-08-21 23:35:00,69.1,65.1,29.96,South,181,0.0,0.0,87,0.00,,CLR,0.00,VWS V14.01,2013-08-22 03:35:00,
2013-08-21 23:40:00,69.0,65.0,29.96,South,181,0.0,0.0,87,0.00,,CLR,0.00,VWS V14.01,2013-08-22 03:40:00,
2013-08-21 23:45:00,68.9,65.2,29.96,South,181,0.0,0.0,88,0.00,,CLR,0.00,VWS V14.01,2013-08-22 03:45:00,
2013-08-21 23:50:00,68.7,65.0,29.96,South,181,0.0,0.0,88,0.00,,CLR,0.00,VWS V14.01,2013-08-22 03:50:00,
2013-08-21 23:55:00,68.6,65.2,29.96,South,181,0.0,0.0,89,0.00,,CLR,0.00,VWS V14.01,2013-08-22 03:55:00,